Location: lozzo di cadore
(46.4899°N, 12.4508°E)
Time: 13:10:39
(UTC+02:00)

Envisat - Pass Details

Date: 02 May 2025
Orbit: 761 x 763 km, 98.3° (Epoch: 14 May)

Event Time Altitude Azimuth Distance (km) Brightness Sun altitude
Rises 04:31:44 0° 10° (N) 3,234 7.1 -12.9°
Reaches altitude 10° 04:34:03 10° 8° (N) 2,304 6.2 -12.6°
Maximum altitude 04:39:04 63° 288° (WNW) 852 3.1 -11.9°
Enters shadow 04:43:34 13° 209° (SSW) 2,107 4.7 -11.3°
